This demonstration page uses our WeatherBlox Daily Observations layout. Learn more.

40.92945, -100.16068

Hourly Observations for January 16, 2019

Temp ( °F °C ) Dew Point ( °F °C ) Humidity (%) Winds ( mph kmh ) Pressure ( in mb ) Visibility ( mi km ) Precip ( " mm )
12:15 am 00:15 Clear 28 -2.1 24 -4.2 86 86 ENE 5 7 30.27 1025 10 16.09344 0 0
12:35 am 00:35 Clear 27 -2.6 24 -4.4 88 88 NE 5 7 30.27 1025 10 16.09344 0 0
12:55 am 00:55 Partly Cloudy 28 -2.5 24 -4.3 88 88 NE 7 11 30.27 1025 10 16.09344 0 0
1:15 am 01:15 Cloudy with Mist and Fog 27 -2.7 25 -4 91 91 ENE 10 17 30.27 1025 4 6.437376 0 0
1:35 am 01:35 Cloudy with Mist and Fog 27 -2.6 26 -3.5 94 94 ENE 9 15 30.24 1024 3 4.828032 0 0
1:55 am 01:55 Cloudy with Mist and Fog 28 -2.5 26 -3.3 94 94 NE 8 13 30.27 1025 2.5 4.02336 0 0
2:15 am 02:15 Cloudy with Mist and Fog 28 -2.3 26 -3.1 94 94 NE 10 17 30.27 1025 2 3.218688 0 0
2:35 am 02:35 Cloudy with Mist and Fog 28 -2.3 27 -3 95 95 NE 7 11 30.27 1025 2.5 4.02336 0 0
2:55 am 02:55 Cloudy with Mist and Fog 28 -2.2 27 -3 94 94 ENE 9 15 30.27 1025 2 3.218688 0 0
3:15 am 03:15 Cloudy with Mist and Fog 28 -2.1 27 -2.8 95 95 ENE 7 11 30.27 1025 1.75 2.816352 0 0
3:35 am 03:35 Cloudy with Mist and Fog 28 -2.1 27 -2.9 94 94 NE 8 13 30.27 1025 1.75 2.816352 0 0
3:55 am 03:55 Cloudy with Mist and Fog 28 -2 27 -2.7 95 95 E 7 11 30.27 1025 1.5 2.414016 0 0
4:15 am 04:15 Cloudy with Mist and Fog 28 -2.3 27 -3 95 95 E 10 17 30.27 1025 1 1.609344 0 0
4:35 am 04:35 Cloudy with Mist and Fog 28 -2.5 26 -3.2 95 95 E 12 19 30.27 1025 1 1.609344 0 0
4:55 am 04:55 Cloudy with Mist and Fog 27 -2.8 26 -3.6 94 94 E 6 9 30.24 1024 1.25 2.01168 0 0
5:15 am 05:15 Cloudy with Mist and Fog 27 -2.7 26 -3.5 94 94 ENE 8 13 30.24 1024 1 1.609344 0 0
5:35 am 05:35 Cloudy with Mist and Fog 27 -2.6 26 -3.5 94 94 ENE 7 11 30.24 1024 1 1.609344 0 0
5:55 am 05:55 Cloudy with Mist and Fog 28 -2.5 26 -3.3 94 94 ENE 8 13 30.24 1024 0.75 1.207008 0 0
6:15 am 06:15 Cloudy with Mist and Fog 27 -2.9 25 -3.7 94 94 E 9 15 30.24 1024 1.25 2.01168 0 0
6:35 am 06:35 Cloudy with Mist and Fog 27 -3 25 -3.8 94 94 E 8 13 30.24 1024 1.5 2.414016 0 0
6:55 am 06:55 Cloudy with Mist and Fog 27 -3 25 -3.8 94 94 E 8 13 30.24 1024 1.25 2.01168 0 0
7:15 am 07:15 Cloudy with Mist and Fog 27 -3 25 -3.7 95 95 E 9 15 30.24 1024 1.5 2.414016 0 0
7:35 am 07:35 Cloudy with Mist and Fog 27 -2.9 26 -3.6 95 95 ENE 10 17 30.24 1024 1 1.609344 0 0
7:55 am 07:55 Cloudy with Mist and Fog 26 -3.1 25 -4 94 94 E 8 13 30.24 1024 4 6.437376 0 0
8:15 am 08:15 Cloudy with Mist and Fog 27 -3 25 -3.7 95 95 E 8 13 30.24 1024 1 1.609344 0 0
8:35 am 08:35 Cloudy with Mist and Fog 27 -3 25 -3.7 95 95 E 8 13 30.24 1024 1.25 2.01168 0 0
8:55 am 08:55 Cloudy with Mist and Fog 27 -2.8 26 -3.6 94 94 ESE 10 17 30.24 1024 0.75 1.207008 0 0
9:15 am 09:15 Cloudy with Mist and Fog 27 -3 25 -3.7 95 95 E 9 15 30.24 1024 0.75 1.207008 0 0
9:35 am 09:35 Cloudy with Mist and Fog 27 -2.8 26 -3.6 94 94 E 8 13 30.24 1024 1.75 2.816352 0 0
9:55 am 09:55 Cloudy with Freezing Fog 27 -2.7 26 -3.5 94 94 ESE 9 15 30.24 1024 0.5 0.804672 0 0
10:15 am 10:15 Cloudy with Mist and Fog 27 -2.6 26 -3.4 94 94 E 9 15 30.24 1024 4 6.437376 0 0
10:35 am 10:35 Cloudy with Freezing Fog 28 -2.5 26 -3.4 94 94 E 9 15 30.24 1024 0.5 0.804672 0 0
10:55 am 10:55 Cloudy with Mist and Fog 28 -2.5 26 -3.3 94 94 ESE 10 17 30.24 1024 1 1.609344 0 0
11:15 am 11:15 Cloudy with Freezing Fog 28 -2.5 26 -3.3 94 94 ESE 8 13 30.24 1024 0.5 0.804672 0 0
11:35 am 11:35 Cloudy with Mist and Fog 28 -2.5 26 -3.2 95 95 ESE 7 11 30.24 1024 1 1.609344 0 0
11:55 am 11:55 Cloudy with Mist and Fog 28 -2.5 26 -3.2 95 95 SE 5 7 30.24 1024 0.75 1.207008 0 0
12:15 pm 12:15 Cloudy with Freezing Fog 28 -2.3 27 -3 95 95 ESE 6 9 30.21 1023 0.25 0.402336 0 0
12:35 pm 12:35 Cloudy with Freezing Fog 28 -2.4 26 -3.2 94 94 ESE 5 7 30.21 1023 0.5 0.804672 0 0
12:55 pm 12:55 Cloudy with Mist and Fog 28 -2.3 26 -3.1 94 94 SE 6 9 30.18 1022 1.25 2.01168 0 0
1:15 pm 13:15 Cloudy with Mist and Fog 28 -2.3 26 -3.1 94 94 SSE 7 11 30.18 1022 2 3.218688 0 0
1:35 pm 13:35 Cloudy with Mist and Fog 28 -2.3 26 -3.1 94 94 SSE 7 11 30.18 1022 3 4.828032 0 0
1:55 pm 13:55 Cloudy with Mist and Fog 28 -2 27 -2.9 94 94 SE 6 9 30.18 1022 1.5 2.414016 0 0
2:15 pm 14:15 Cloudy with Mist and Fog 28 -2 27 -2.8 94 94 SE 6 9 30.18 1022 1.25 2.01168 0 0
2:35 pm 14:35 Cloudy with Mist and Fog 28 -2 27 -2.7 95 95 SE 7 11 30.18 1022 2.5 4.02336 0 0
2:55 pm 14:55 Cloudy with Mist and Fog 28 -2 27 -2.7 95 95 ESE 6 9 30.18 1022 2.5 4.02336 0 0
3:15 pm 15:15 Cloudy with Mist and Fog 29 -1.9 27 -2.6 95 95 ESE 9 15 30.15 1021 2 3.218688 0 0
3:35 pm 15:35 Cloudy with Mist and Fog 28 -2 27 -2.6 96 96 ESE 7 11 30.18 1022 1.75 2.816352 0 0
3:55 pm 15:55 Cloudy with Mist and Fog 28 -2 27 -2.7 95 95 ESE 5 7 30.18 1022 2 3.218688 0 0
4:15 pm 16:15 Cloudy with Mist and Fog 28 -2 27 -2.7 95 95 ESE 6 9 30.18 1022 2 3.218688 0 0
4:35 pm 16:35 Cloudy with Mist and Fog 28 -2 27 -2.6 96 96 ESE 7 11 30.18 1022 1.75 2.816352 0 0
4:55 pm 16:55 Cloudy with Mist and Fog 28 -2 27 -2.7 95 95 ESE 7 11 30.18 1022 1.5 2.414016 0 0
5:15 pm 17:15 Cloudy with Mist and Fog 28 -2 27 -2.6 96 96 ESE 6 9 30.18 1022 2 3.218688 0 0
5:35 pm 17:35 Cloudy with Mist and Fog 28 -2 27 -2.7 95 95 SE 3 6 30.18 1022 1.75 2.816352 0 0
5:55 pm 17:55 Cloudy with Mist and Fog 28 -2 27 -2.7 95 95 S 3 6 30.18 1022 2.5 4.02336 0 0
6:15 pm 18:15 Cloudy with Mist and Fog 28 -2 27 -2.7 95 95 SSE 3 6 30.18 1022 3 4.828032 0 0
6:35 pm 18:35 Cloudy with Mist and Fog 29 -1.8 27 -2.6 94 94 S 5 7 30.15 1021 4 6.437376 0 0
6:55 pm 18:55 Cloudy with Mist and Fog 29 -1.8 27 -2.6 94 94 SE 5 7 30.15 1021 3 4.828032 0 0
7:15 pm 19:15 Cloudy with Mist and Fog 29 -1.8 27 -2.6 94 94 SSE 7 11 30.15 1021 3 4.828032 0 0
7:35 pm 19:35 Cloudy with Mist and Fog 29 -1.8 27 -2.6 94 94 SSE 6 9 30.15 1021 4 6.437376 0 0
7:55 pm 19:55 Cloudy with Mist and Fog 29 -1.8 27 -2.6 94 94 S 5 7 30.15 1021 4 6.437376 0 0
8:15 pm 20:15 Cloudy with Mist and Fog 29 -1.7 28 -2.5 94 94 S 6 9 30.15 1021 5 8.04672 0 0
8:35 pm 20:35 Cloudy with Mist and Fog 29 -1.7 28 -2.5 94 94 S 5 7 30.15 1021 5 8.04672 0 0
8:55 pm 20:55 Cloudy with Mist and Fog 29 -1.7 28 -2.5 94 94 S 3 6 30.15 1021 5 8.04672 0 0
9:15 pm 21:15 Cloudy with Mist and Fog 29 -1.7 28 -2.5 94 94 SE 6 9 30.15 1021 5 8.04672 0 0
9:35 pm 21:35 Cloudy with Mist and Fog 29 -1.7 28 -2.5 94 94 SSE 3 6 30.15 1021 5 8.04672 0 0
9:55 pm 21:55 Cloudy with Light Snow 29 -1.7 28 -2.4 95 95 S 3 6 30.15 1021 4 6.437376 0 0
10:15 pm 22:15 Cloudy with Light Snow 29 -1.6 28 -2.3 95 95 SW 5 7 30.15 1021 4 6.437376 0 0
10:35 pm 22:35 Cloudy with Mist and Fog 29 -1.6 28 -2.3 95 95 SSW 5 7 30.15 1021 5 8.04672 0 0
10:55 pm 22:55 Cloudy with Mist and Fog 29 -1.5 28 -2.3 94 94 SSW 5 7 30.15 1021 5 8.04672 0 0
11:15 pm 23:15 Cloudy with Mist and Fog 29 -1.5 28 -2.3 94 94 S 3 6 30.15 1021 5 8.04672 0 0
11:35 pm 23:35 Cloudy with Mist and Fog 29 -1.5 28 -2.3 94 94 SW 6 9 30.15 1021 5 8.04672 0 0
11:55 pm 23:55 Cloudy with Mist and Fog 29 -1.5 28 -2.5 93 93 SW 5 7 30.15 1021 5 8.04672 0 0

Powered by AerisWeather